Regional Weather Roundup
Issued by NWS Sioux Falls, SD

Home | Current Version | Previous Version | Graphics & Text | Print | Product List | Glossary On
Versions: 1 2 3 4 5 6 7 8 9 10 11 12 13 14 15 16 17 18 19 20 21 22 23 24 25 26 27 28 29 30 31 32 33 34 35 36 37 38 39 40 41 42 43 44 45 46 47 48 49 50
000
ASUS43 KFSD 021802
RWRFSD

WEATHER ROUNDUP FOR SE SOUTH DAKOTA/SW MINNESOTA/NW IOWA
NATIONAL WEATHER SERVICE SIOUX FALLS SD
100 PM CDT THU JUL 02 2015

NOTE: "FAIR" INDICATES FEW OR NO CLOUDS BELOW 12,000 FEET WITH NO
SIGNIFICANT WEATHER AND OR OBSTRUCTIONS TO VISIBILITY.


SDZ038>040-050-052>070-021900-
SOUTHEAST SOUTH DAKOTA

CITY           SKY/WX    TMP DP  RH WIND       PRES   REMARKS
BROOKINGS      CLOUDY    70  50  49 E8        30.02F
CHAMBERLAIN    NOT AVBL
HURON          RAIN      64  58  80 CALM      29.98F
6HR MIN TEMP:  59; 6HR MAX TEMP:  66; 6HR PCP:  0.03;

MADISON        FAIR      68  54  60 SE8       30.00F
MITCHELL       PTSUNNY   71  63  75 SE6       29.98R
6HR MIN TEMP:  60; 6HR MAX TEMP:  71; 6HR PCP:  0.06;

SIOUX FALLS    CLOUDY    69  59  70 E9        29.99F
6HR MIN TEMP:  58; 6HR MAX TEMP:  69;

WINNER         CLOUDY    74  62  66 VRB7      29.98F
YANKTON        CLOUDY    61  57  88 E9        29.95F
$$

MNZ071-072-080-081-089-090-097-098-021900-
SOUTHWEST MINNESOTA

CITY           SKY/WX    TMP DP  RH WIND       PRES   REMARKS
FAIRMONT       MOSUNNY   70  48  46 SE12      30.01F
JACKSON        PTSUNNY   72  48  43 E8        30.03F
LUVERNE        PTSUNNY   70  55  60 E7        30.01F
MARSHALL       PTSUNNY   70  48  46 E9        30.01S
6HR MIN TEMP:  54; 6HR MAX TEMP:  70;

MONTEVIDEO     MOSUNNY   73  48  40 SW6       30.02F
PIPESTONE      PTSUNNY   70  46  43 SE7       30.01F
REDWOOD FALLS  MOSUNNY   73  47  39 SE9       30.01S
TRACY          PTSUNNY   69  51  51 SE8       30.02F
WINDOM         MOSUNNY   72  48  43 SE10      30.02F
WORTHINGTON    PTSUNNY   66  52  59 SE7       30.02F
$$

IAZ001>003-012>014-020>022-031-032-NEZ013-014-SDZ071-021900-
NORTHWEST IOWA

CITY           SKY/WX    TMP DP  RH WIND       PRES   REMARKS
ESTHERVILLE    PTSUNNY   68  50  52 E10       30.01F
SIOUX CITY     CLOUDY    68  60  75 E8        29.98F
6HR MIN TEMP:  60; 6HR MAX TEMP:  68; 6HR PCP:  0.01;

SPENCER        CLOUDY    69  53  56 SE8       30.01F
6HR MIN TEMP:  57; 6HR MAX TEMP:  70;

$$

ABBREVIATIONS USED IN REMARKS
   TC - TEMPERATURE IN CELSIUS
  WCI - WIND CHILL INDEX
   HX - HEAT INDEX
  VSB - VISIBILITY




USA.gov is the U.S. government's official web portal to all federal, state and local government web resources and services.